Location: Casa Rossa
(45.2389°N, 12.2056°E)
Time: 23:56:20
(UTC+00:00)

Okean 3 - Pass Details

Date: 14 July 2020
Orbit: 576 x 601 km, 82.5° (Epoch: 14 August)

Event Time Altitude Azimuth Distance (km) Brightness Sun altitude
Rises 01:50:53 0° 342° (NNW) 2,805 7.5 -14.5°
Reaches altitude 10° 01:53:14 10° 332° (NNW) 1,903 6.4 -14.3°
Maximum altitude 01:56:58 32° 269° (W) 1,006 4.3 -13.9°
Enters shadow 01:58:48 22° 225° (SW) 1,279 4.5 -13.7°
